User: anonymous   Login
Location: Unspecified
(0.0000°N, 0.0000°E)
Time: 20:13:22
(UTC+02:00)
Language:

Coronas F rocket - Orbit

View from above orbital plane
View from above orbital plane
View from above satellite
View from above satellite

Ground track
Ground track

The orbit data is extracted from the following two-line orbital elements,

1 26874U 01032B   15212.81322774  .00013794  00000-0  13071-3 0  9997
2 26874 082.4651 269.7479 0009540 345.0202 015.0773 15.66702367785111
Epoch (UTC): 31 July 2015 19:31:02
Eccentricity: 0.0009540
inclination: 82.4651°
perigee height: 362 km
apogee height: 375 km
right ascension of ascending node: 269.7479°
argument of perigee: 345.0202°
revolutions per day: 15.66702367
mean anomaly at epoch: 15.0773°
orbit number at epoch: 78511

The dashed part of the orbit path shows where the satellite is in the earth's shadow,  

DLR